View from above orbital plane
|
View from above satellite
|
Ground track
|
The orbit data is extracted from the following two-line orbital elements,
1 17526U 87017B 21058.56441111 .00000107 00000-0 92254-4 0 9997
2 17526 82.8996 110.2746 0041471 137.5705 222.8671 13.76889286692059
Epoch (UTC): | 27 February 2021 13:32:45 |
Eccentricity: | 0.0041471 |
inclination: | 82.8996° |
perigee height: | 944 km |
apogee height: | 1005 km |
right ascension of ascending node: | 110.2746° |
argument of perigee: | 137.5705° |
revolutions per day: | 13.76889286 |
mean anomaly at epoch: | 222.8671° |
orbit number at epoch: | 69205 |
The dashed part of the orbit path shows where the satellite is in the earth's shadow,
|
|